Location: Peebles
(55.6412°N, 3.1714°W)
Time: 10:21:19
(UTC+01:00)

Cosmos 2219 - Pass Details

Date: 26 September 2021
Orbit: 834 x 859 km, 71.1° (Epoch: 20 October)

Event Time Altitude Azimuth Distance (km) Brightness Sun altitude
Rises 20:46:14 0° 323° (NW) 3,419 7.4 -15.4°
Reaches altitude 10° 20:48:56 10° 332° (NNW) 2,477 6.4 -15.8°
Maximum altitude 20:54:05 34° 37° (NE) 1,359 4.1 -16.5°
Enters shadow 20:56:44 23° 83° (E) 1,723 4.3 -16.8°
